"Pseudo-MPEC" for A11EYwE

Created 2026 Jul 24 17:35:03 UT using Find_Orb

Click here for an explanation of pseudo-MPECs

 
 Astrometry: 
     A11EYwE*0C2026 07 23.36519118 20 40.855-14 27 49.07   ~7NF5 18.00oVNEOCPT08
     A11EYwE 0C2026 07 23.36884518 20 40.094-14 27 49.93   ~7NF5 18.25oVNEOCPT08
     A11EYwE 0C2026 07 23.37434918 20 38.952-14 27 50.36   ~7NF5 17.86oVNEOCPT08
     A11EYwE 0C2026 07 23.38414418 20 37.054-14 27 51.34   ~7NF5 17.96oVNEOCPT08
     A11EYwE KB2026 07 23.49297318 21 12.124-14 30 46.01   ~7NF5 17.6 GXNEOCPQ06
     A11EYwE KB2026 07 23.49675318 21 11.550-14 30 47.58   ~7NF5 18.1 GXNEOCPQ06
     A11EYwE KB2026 07 23.50053218 21 11.069-14 30 49.58   ~7NF5 18.0 GXNEOCPQ06

Station data:
(Q06) Tarui Observatory, Tarui  (N35.394791 E136.495470)  Japan.  Observer H.
   Watanabe. 0.35-m f/1.9 Schmidt-Cassegrain + CMO.
(T08) ATLAS-MLO, Mauna Loa  (N19.536150 W155.576050)  US/Hawaii.  Observers
   L. Denneau, R. Siverd, J. Tonry, H. Weiland. Measurers L. Denneau, N.
   Erasmus, A. Fitzsimmons, J. Robinson, R. Siverd, J. Tonry, H. Weiland.
   0.5-m f/2.0 Schmidt + CCD.

Orbital elements:  A11EYwE
   Perihelion 2026 Mar 22.923941 +/- 57.6 TT = 22:10:28.5 (JD 2461122.423941)
Epoch 2026 Jul 23.0 TT = JDT 2461244.5   Earth MOID: 0.0002      AutoNEOCP
M 126.467718342 +/- 29              (J2000 ecliptic)
n   1.035974783 +/- 0.244           Peri.  233.384306 +/- 22
a   0.967319463 +/- 0.152           Node   291.758858 +/- 26
e   0.09265476 +/- 0.285            Incl.    0.714781 +/- 2.2
P   0.951/347.492d         H 26.76  G  0.15   U 11.8
q 0.877692706 +/- 0.413    Q 1.056946220 +/- 0.11
From 7 observations 2026 July 23 (3.2 hr); mean residual 0".28
Residuals in arcseconds: 
260723 T08  .36+  .06+    260723 T08  .18+  .03-    260723 Q06  .48+  .08+    
260723 T08  .00   .17-    260723 Q06  .00   .25-    
260723 T08  .54-  .15+    260723 Q06  .49-  .17+    

Ephemerides (geocentric):
Date (UTC) HH   RA             Dec           delta  r     elong  mag " sig PA
---- --------  ------------   ------------  ------ ------ -----  --- --------
2026 07 24 18  18 23 06.509   -14 26 13.52  .01323 1.0275 152.8 18.6 1344  85
2026 07 24 19  18 23 10.342   -14 26 22.47  .01329 1.0276 152.8 18.6 1447  85
2026 07 24 20  18 23 14.151   -14 26 31.36  .01335 1.0276 152.7 18.7 1555  85
2026 07 24 21  18 23 17.935   -14 26 40.19  .01341 1.0277 152.7 18.7 1669  86
2026 07 24 22  18 23 21.695   -14 26 48.96  .01347 1.0277 152.7 18.7 1789  86
2026 07 24 23  18 23 25.431   -14 26 57.67  .01353 1.0278 152.7 18.7 1915  86
2026 07 25 00  18 23 29.144   -14 27 06.32  .01358 1.0278 152.7 18.7 2048  87
2026 07 25 01  18 23 32.834   -14 27 14.92  .01364 1.0279 152.6 18.7 2187  87
2026 07 25 02  18 23 36.501   -14 27 23.46  .01370 1.0279 152.6 18.7 2333  87
2026 07 25 03  18 23 40.145   -14 27 31.95  .01376 1.0279 152.6 18.7 2486  87
2026 07 25 04  18 23 43.767   -14 27 40.38  .01382 1.0280 152.6 18.7 2647  88
2026 07 25 05  18 23 47.368   -14 27 48.76  .01388 1.0280 152.5 18.8 2816  88
2026 07 25 06  18 23 50.946   -14 27 57.09  .01394 1.0281 152.5 18.8 2994  88
2026 07 25 07  18 23 54.504   -14 28 05.36  .01400 1.0281 152.5 18.8 3180  88
2026 07 25 08  18 23 58.040   -14 28 13.59  .01406 1.0282 152.5 18.8 3376  89
2026 07 25 09  18 24 01.556   -14 28 21.76  .01412 1.0282 152.4 18.8 3581  89
2026 07 25 10  18 24 05.051   -14 28 29.88  .01418 1.0283 152.4 18.8 3797  89
2026 07 25 11  18 24 08.527   -14 28 37.96  .01424 1.0283 152.4 18.8 4024  89
2026 07 25 12  18 24 11.982   -14 28 45.99  .01430 1.0284 152.4 18.8 4263  89
2026 07 25 13  18 24 15.418   -14 28 53.97  .01436 1.0284 152.4 18.8 4514  89
2026 07 25 14  18 24 18.834   -14 29 01.90  .01442 1.0285 152.3 18.8 4778  90
2026 07 25 15  18 24 22.231   -14 29 09.79  .01447 1.0285 152.3 18.8 5057  90
2026 07 25 16  18 24 25.609   -14 29 17.63  .01453 1.0285 152.3 18.9 5350  90
2026 07 25 17  18 24 28.969   -14 29 25.43  .01459 1.0286 152.3 18.9 5659  90
2026 07 25 18  18 24 32.310   -14 29 33.18  .01465 1.0286 152.2 18.9 5984  90
2026 07 25 19  18 24 35.633   -14 29 40.89  .01471 1.0287 152.2 18.9 6328  90
2026 07 25 20  18 24 38.939   -14 29 48.56  .01477 1.0287 152.2 18.9 6691  90
2026 07 25 21  18 24 42.226   -14 29 56.18  .01483 1.0288 152.2 18.9 7075  90
2026 07 25 22  18 24 45.497   -14 30 03.76  .01489 1.0288 152.1 18.9 7482  91
2026 07 25 23  18 24 48.750   -14 30 11.31  .01495 1.0289 152.1 18.9 7912  91
2026 07 26 00  18 24 51.986   -14 30 18.81  .01501 1.0289 152.1 18.9 8369  91
2026 07 26 01  18 24 55.205   -14 30 26.27  .01507 1.0290 152.1 18.9 8853  91
2026 07 26 02  18 24 58.408   -14 30 33.70  .01513 1.0290 152.0 19.0 9369  91
2026 07 26 03  18 25 01.594   -14 30 41.08  .01519 1.0290 152.0 19.0 9917  91
2026 07 26 04  18 25 04.764   -14 30 48.43  .01525 1.0291 152.0 19.0 175'  91
2026 07 26 05  18 25 07.918   -14 30 55.74  .01531 1.0291 152.0 19.0 185'  91
2026 07 26 06  18 25 11.057   -14 31 03.01  .01536 1.0292 151.9 19.0 197'  91
2026 07 26 07  18 25 14.180   -14 31 10.25  .01542 1.0292 151.9 19.0 208'  91
2026 07 26 08  18 25 17.288   -14 31 17.45  .01548 1.0293 151.9 19.0 221'  92
2026 07 26 09  18 25 20.380   -14 31 24.61  .01554 1.0293 151.9 19.0 235'  92
2026 07 26 10  18 25 23.458   -14 31 31.74  .01560 1.0294 151.8 19.0 250'  92
2026 07 26 11  18 25 26.521   -14 31 38.84  .01566 1.0294 151.8 19.0 266'  92
2026 07 26 12  18 25 29.569   -14 31 45.90  .01572 1.0295 151.8 19.0 283'  92
2026 07 26 13  18 25 32.603   -14 31 52.93  .01578 1.0295 151.8 19.1 302'  92
2026 07 26 14  18 25 35.622   -14 31 59.92  .01584 1.0295 151.7 19.1 322'  92
2026 07 26 15  18 25 38.628   -14 32 06.88  .01590 1.0296 151.7 19.1 345'  92
2026 07 26 16  18 25 41.620   -14 32 13.81  .01596 1.0296 151.7 19.1 369'  92
2026 07 26 17  18 25 44.598   -14 32 20.71  .01602 1.0297 151.7 19.1 397'  92